Time,TemperatureF,DewpointF,PressureIn,WindDirection,WindDirectionDegrees,WindSpeedMPH,WindSpeedGustMPH,Humidity,HourlyPrecipIn,Conditions,Clouds,dailyrainin,SoftwareType,DateUTC
2013-02-05 00:02:00,21.0,11.0,29.92,SSE,165,0.0,5.0,65,0.00,,,0.00,,2013-02-05 06:02:00,
2013-02-05 00:11:00,21.0,11.0,29.92,SSE,165,0.0,5.0,65,0.00,,,0.00,,2013-02-05 06:11:00,
2013-02-05 00:21:00,21.0,11.0,29.92,SSE,165,0.0,5.0,65,0.00,,,0.00,,2013-02-05 06:21:00,
2013-02-05 01:52:00,22.0,12.0,29.89,SW,225,0.0,3.0,65,0.00,,,0.00,,2013-02-05 07:52:00,
2013-02-05 02:01:00,22.0,12.0,29.89,SW,225,0.0,3.0,65,0.00,,,0.00,,2013-02-05 08:01:00,
2013-02-05 02:11:00,22.0,12.0,29.89,SW,225,0.0,3.0,65,0.00,,,0.00,,2013-02-05 08:11:00,
2013-02-05 02:21:00,22.0,12.0,29.89,SW,225,0.0,3.0,65,0.00,,,0.00,,2013-02-05 08:21:00,
2013-02-05 02:31:00,22.0,12.0,29.89,SW,225,0.0,3.0,65,0.00,,,0.00,,2013-02-05 08:31:00,
2013-02-05 03:52:00,23.0,14.0,29.83,WSW,256,3.0,4.0,67,0.00,,,0.00,,2013-02-05 09:52:00,
2013-02-05 04:02:00,23.0,14.0,29.83,WSW,256,3.0,4.0,67,0.00,,,0.00,,2013-02-05 10:02:00,
2013-02-05 04:11:00,23.0,14.0,29.83,WSW,256,3.0,4.0,67,0.00,,,0.00,,2013-02-05 10:11:00,
2013-02-05 04:21:00,23.0,14.0,29.83,WSW,256,3.0,4.0,67,0.00,,,0.00,,2013-02-05 10:21:00,
2013-02-05 04:32:00,23.0,14.0,29.83,WSW,256,3.0,4.0,67,0.00,,,0.00,,2013-02-05 10:32:00,
2013-02-05 04:42:00,23.0,14.0,29.83,WSW,256,3.0,4.0,67,0.00,,,0.00,,2013-02-05 10:42:00,
2013-02-05 05:52:00,23.0,14.0,29.80,SW,235,0.0,3.0,69,0.00,,,0.00,,2013-02-05 11:52:00,
2013-02-05 06:01:00,23.0,14.0,29.80,SW,235,0.0,3.0,69,0.00,,,0.00,,2013-02-05 12:01:00,
2013-02-05 06:12:00,23.0,14.0,29.80,SW,235,0.0,3.0,69,0.00,,,0.00,,2013-02-05 12:12:00,
2013-02-05 06:21:00,23.0,14.0,29.80,SW,235,0.0,3.0,69,0.00,,,0.00,,2013-02-05 12:21:00,
2013-02-05 06:32:00,23.0,14.0,29.80,SW,235,0.0,3.0,69,0.00,,,0.00,,2013-02-05 12:32:00,
2013-02-05 06:42:00,23.0,14.0,29.80,SW,235,0.0,3.0,69,0.00,,,0.00,,2013-02-05 12:42:00,
2013-02-05 07:41:00,28.0,22.0,29.80,West,265,3.0,5.0,77,0.00,,,0.00,,2013-02-05 13:41:00,
2013-02-05 07:52:00,28.0,22.0,29.80,West,265,3.0,5.0,77,0.00,,,0.00,,2013-02-05 13:52:00,
2013-02-05 08:01:00,28.0,22.0,29.80,West,265,3.0,5.0,77,0.00,,,0.00,,2013-02-05 14:01:00,
2013-02-05 08:12:00,28.0,22.0,29.80,West,265,3.0,5.0,77,0.00,,,0.00,,2013-02-05 14:12:00,
2013-02-05 08:21:00,28.0,22.0,29.80,West,265,3.0,5.0,77,0.00,,,0.00,,2013-02-05 14:21:00,
2013-02-05 08:31:00,28.0,22.0,29.80,West,265,3.0,5.0,77,0.00,,,0.00,,2013-02-05 14:31:00,
2013-02-05 09:52:00,34.0,20.0,29.80,NNE,32,6.0,9.0,57,0.00,,,0.00,,2013-02-05 15:52:00,
2013-02-05 10:01:00,34.0,20.0,29.80,NNE,32,6.0,9.0,57,0.00,,,0.00,,2013-02-05 16:01:00,
2013-02-05 10:11:00,34.0,20.0,29.80,NNE,32,6.0,9.0,57,0.00,,,0.00,,2013-02-05 16:11:00,
2013-02-05 10:22:00,34.0,20.0,29.80,NNE,32,6.0,9.0,57,0.00,,,0.00,,2013-02-05 16:22:00,
2013-02-05 10:32:00,34.0,20.0,29.80,NNE,32,6.0,9.0,57,0.00,,,0.00,,2013-02-05 16:32:00,
2013-02-05 10:42:00,34.0,20.0,29.80,NNE,32,6.0,9.0,57,0.00,,,0.00,,2013-02-05 16:42:00,
2013-02-05 11:52:00,41.0,23.0,29.86,NE,43,10.0,16.0,48,0.00,,,0.00,,2013-02-05 17:52:00,
2013-02-05 12:02:00,41.0,23.0,29.86,NE,43,10.0,16.0,48,0.00,,,0.00,,2013-02-05 18:02:00,
2013-02-05 12:21:00,41.0,23.0,29.86,NE,43,10.0,16.0,48,0.00,,,0.00,,2013-02-05 18:21:00,
2013-02-05 13:52:00,44.0,26.0,29.89,NE,44,12.0,12.0,49,0.00,,,0.00,,2013-02-05 19:52:00,
2013-02-05 14:01:00,44.0,26.0,29.89,NE,44,12.0,12.0,49,0.00,,,0.00,,2013-02-05 20:01:00,
2013-02-05 14:11:00,44.0,26.0,29.89,NE,44,12.0,12.0,49,0.00,,,0.00,,2013-02-05 20:11:00,
2013-02-05 14:21:00,44.0,26.0,29.89,NE,44,12.0,12.0,49,0.00,,,0.00,,2013-02-05 20:21:00,
2013-02-05 14:32:00,44.0,26.0,29.89,NE,44,12.0,12.0,49,0.00,,,0.00,,2013-02-05 20:32:00,
2013-02-05 14:42:00,44.0,26.0,29.89,NE,44,12.0,12.0,49,0.00,,,0.00,,2013-02-05 20:42:00,
2013-02-05 15:52:00,42.0,25.0,29.92,ENE,78,3.0,3.0,50,0.00,,,0.00,,2013-02-05 21:52:00,
2013-02-05 16:01:00,42.0,25.0,29.92,ENE,78,3.0,3.0,50,0.00,,,0.00,,2013-02-05 22:01:00,
2013-02-05 16:11:00,42.0,25.0,29.92,ENE,78,3.0,3.0,50,0.00,,,0.00,,2013-02-05 22:11:00,
2013-02-05 16:21:00,42.0,25.0,29.92,ENE,78,3.0,3.0,50,0.00,,,0.00,,2013-02-05 22:21:00,
2013-02-05 16:32:00,42.0,25.0,29.92,ENE,78,3.0,3.0,50,0.00,,,0.00,,2013-02-05 22:32:00,
2013-02-05 16:42:00,42.0,25.0,29.92,ENE,78,3.0,3.0,50,0.00,,,0.00,,2013-02-05 22:42:00,